sat.trackr.live / text

‹ back to catalog

STARLINK-30758

NORAD 58133 · 2023-162R

PAYLOAD ACTIVE UNKNOWN

§ Identity

Operator
Country
US
Launch date
2023-10-22
Launch site
AFETR
Launch vehicle
Mass (kg)
RCS (m²)

Purposes: comms

External: N2YO · Heavens-Above · Gunter

§ Orbital elements

Epoch: 2026-05-25T04:19:41.344032Z

Period
94.27 min
Inclination
43.0046°
Eccentricity
0.0001004
Mean motion
15.27574260 rev/d
Perigee alt
482.4 km
Apogee alt
483.8 km
Semi-major
6,861.2 km
B*
4.8982e-5
RAAN
57.2460°
Arg perigee
272.2996°
Mean anomaly
87.7741°
Rev number
14,404

§ Raw data

STARLINK-307581 58133U 23162R   26145.18033963  .00001086  00000+0  48982-4 0  99942 58133  43.0046  57.2460 0001004 272.2996  87.7741 15.27574260144041

JSON: /api/v1/satellites/58133 · /tle

For live sub-satellite position, see the globe view (requires WebGL).

§ Visibility from observer

Set your observer location to see the next 7 days of passes ≥ 10°. The values pass through the URL so the page stays shareable.

No JS? Fill the form by hand. The geolocation button needs JavaScript.